Other Public Products
Issued by NWS Charleston, SC

Current Version | Previous Version | Graphics & Text | Print | Product List | Glossary On
Versions: 1 2 3 4 5 6 7 8 9 10 11 12 13 14 15 16 17 18 19 20 21 22 23 24 25 26 27 28 29 30 31 32 33 34 35 36 37 38 39 40 41 42 43 44 45 46 47 48 49 50
140 FPUS82 KCHS 221212 OPUCHS TEST...KCHS/KSAV Gateway Observations...TEST National Weather Service Charleston SC 800 AM EDT TUE AUG 22 2017 NOTE: "fair" indicates few or no clouds below 12,000 feet with no significant weather and/or obstructions to visibility. SCZ050-WAZ558-NCZ071-TXZ119-213-PAZ071-DCZ001-FLZ074-172-MI076- NYZ176-178-MAZ016-IL014-TNZ027-NJZ106-GAZ044-MD014-221300- ...Gateway Observations for Charleston International... CITY SKY/WX TMP DP RH WIND PRES REMARKS Chas Airport PTSUNNY 79 77 94 CALM 30.09S 6HR MIN TEMP: 74; 6HR MAX TEMP: 79; 6HR PCP: 0.01; Seattle CLEAR 61 54 77 NW5 30.00S 6HR MIN TEMP: 61; 6HR MAX TEMP: 71; Charlotte MOSUNNY 75 74 96 S3 30.13S 6HR MIN TEMP: 73; 6HR MAX TEMP: 76; Dallas DFW PTCLDY 79 73 82 SW7 30.03R 6HR MIN TEMP: 79; 6HR MAX TEMP: 85; Dallas Love PTCLDY 80 71 74 S5 30.04R 6HR MIN TEMP: 80; 6HR MAX TEMP: 84; Philladelphia CLOUDY 77 74 90 SW7 30.05S FOG 6HR MIN TEMP: 75; 6HR MAX TEMP: 77; Wash National MOSUNNY 77 75 93 S6 30.06R 6HR MIN TEMP: 75; 6HR MAX TEMP: 77; Baltimore MOSUNNY 74 74 100 CALM 30.04S 6HR MIN TEMP: 70; 6HR MAX TEMP: 74; Miami PTSUNNY 85 78 80 E8 30.02R HX 96 6HR MIN TEMP: 80; 6HR MAX TEMP: 85; 6HR PCP: 0.02; Detroit CLOUDY 74 69 85 SW14 29.83F 6HR MIN TEMP: 73; 6HR MAX TEMP: 76; 6HR PCP: TRACE; Newark CLOUDY 75 73 93 SW9 30.03R FOG 6HR MIN TEMP: 73; 6HR MAX TEMP: 76; Laguardia PTSUNNY 77 73 87 SW6 30.02S 6HR MIN TEMP: 75; 6HR MAX TEMP: 78; J F K CLOUDY 76 75 97 SW8 30.04S 6HR MIN TEMP: 74; 6HR MAX TEMP: 76; Boston Logan NOT AVBL Ft. Lauderdale MOSUNNY 84 78 82 E13 30.01R HX 95 6HR MIN TEMP: 78; 6HR MAX TEMP: 84; 6HR PCP: 0.01; Chicago O`Hare CLOUDY 72 66 81 W9 29.88R 6HR MIN TEMP: 71; 6HR MAX TEMP: 75; 6HR PCP: 0.02; Chicago Midway CLOUDY 71 68 90 W9 29.88S 6HR MIN TEMP: 71; 6HR MAX TEMP: 74; 6HR PCP: 0.05; Houston Bush PTCLDY 76 74 93 NW3 30.03R 6HR MIN TEMP: 75; 6HR MAX TEMP: 78; Houston Hobby PTCLDY 79 74 84 CALM 30.02R 6HR MIN TEMP: 79; 6HR MAX TEMP: 84; Nashville PTCLDY 75 70 84 S5 30.07R 6HR MIN TEMP: 72; 6HR MAX TEMP: 76; Atlanta SUNNY 75 72 90 CALM 30.13S 6HR MIN TEMP: 74; 6HR MAX TEMP: 76; $$ GAZ044-118-TXZ119-213-NCZ071-DCZ001-MDZ014-506-PAZ021-071-NJZ106- NYZ176-178-MAZ106-OHZ011-021-055-MIZ076-KYZ091-ILZ014-INZ047- MNZ060-ONZ431-221300- ...Gateway Observations for Savannah International... CITY SKY/WX TMP DP RH WIND PRES REMARKS Savannah Arpt MOSUNNY 77 75 93 CALM 30.11R 6HR MIN TEMP: 74; 6HR MAX TEMP: 77; 6HR PCP: 0.02; Atlanta SUNNY 75 72 90 CALM 30.13S 6HR MIN TEMP: 74; 6HR MAX TEMP: 76; Charlotte MOSUNNY 75 74 96 S3 30.13S 6HR MIN TEMP: 73; 6HR MAX TEMP: 76; Dallas DFW PTCLDY 79 73 82 SW7 30.03R 6HR MIN TEMP: 79; 6HR MAX TEMP: 85; Houston Bush PTCLDY 76 74 93 NW3 30.03R 6HR MIN TEMP: 75; 6HR MAX TEMP: 78; Wash National MOSUNNY 77 75 93 S6 30.06R 6HR MIN TEMP: 75; 6HR MAX TEMP: 77; Wash Dulles MOSUNNY 73 72 96 S7 30.06S 6HR MIN TEMP: 71; 6HR MAX TEMP: 73; Baltimore MOSUNNY 74 74 100 CALM 30.04S 6HR MIN TEMP: 70; 6HR MAX TEMP: 74; Philadelphia CLOUDY 77 74 90 SW7 30.05S FOG 6HR MIN TEMP: 75; 6HR MAX TEMP: 77; Newark CLOUDY 75 73 93 SW9 30.03R FOG 6HR MIN TEMP: 73; 6HR MAX TEMP: 76; Laguardia PTSUNNY 77 73 87 SW6 30.02S 6HR MIN TEMP: 75; 6HR MAX TEMP: 78; J F K CLOUDY 76 75 97 SW8 30.04S 6HR MIN TEMP: 74; 6HR MAX TEMP: 76; Boston NOT AVBL Pittsburg PTSUNNY 73 69 87 S6 30.01S 6HR MIN TEMP: 71; 6HR MAX TEMP: 73; Akron PTSUNNY 77 67 71 SW13 29.96F 6HR MIN TEMP: 74; 6HR MAX TEMP: 77; Cleveland CLOUDY 78 68 71 S13 29.92F 6HR MIN TEMP: 77; 6HR MAX TEMP: 79; Cincinnati PTSUNNY 74 70 87 S9 29.99S 6HR MIN TEMP: 74; 6HR MAX TEMP: 77; Columbus MOSUNNY 73 69 88 S8 29.97F Detroit CLOUDY 74 69 85 SW14 29.83F 6HR MIN TEMP: 73; 6HR MAX TEMP: 76; 6HR PCP: TRACE; Chicago O`Hare CLOUDY 72 66 81 W9 29.88R 6HR MIN TEMP: 71; 6HR MAX TEMP: 75; 6HR PCP: 0.02; Minneapolis CLEAR 60 54 80 NW14 29.98R 6HR MIN TEMP: 60; 6HR MAX TEMP: 67; Indianapolis CLOUDY 76 72 87 SW10 29.93S 6HR MIN TEMP: 73; 6HR MAX TEMP: 76; Toronto Canada PTSUNNY 75 72 88 SW10G17 29.78F $$

USA.gov is the U.S. government's official web portal to all federal, state and local government web resources and services.